Location: Archemont
(49.1579°N, 1.7598°E)
Time: 10:41:49
(UTC+00:00)

deb Explorer IX - Pass Details

Date: 19 April 2024
Orbit: 513 x 891 km, 38.7° (Epoch: 23 May)

Event Time Altitude Azimuth Distance (km) Brightness Sun altitude
Rises 13:11:16 0° 247° (WSW) 3,484 ? 48.9°
Reaches altitude 10° 13:14:05 10° 237° (WSW) 2,566 ? 48.6°
Maximum altitude 13:19:26 31° 178° (S) 1,522 ? 48.2°
Drops below altitude 10° 13:24:45 10° 118° (ESE) 2,542 ? 47.7°
Sets 13:27:32 0° 108° (ESE) 3,446 ? 47.4°
